Temperature
19 19 18 18 18 18 18 18 18 17 17 17 17 17 17 17 17 17 17 16 16 16 16 16 16 16 16 16 16 16 16 16 16 16 16 16 16 16 16 16 16 15 16
18 18 18 18 18 17 17 17 17 17 17 17 17 17 17 16 17 16 16 16 16 16 16 16 16 16 16 16 16 16 16 16 15 15 16 15 15 15 15 15 15 15 15
18 18 18 17 17 17 17 17 17 17 17 17 17 16 16 16 16 16 16 16 16 16 16 16 16 15 15 15 15 15 15 15 15 15 15 15 15 15 15 15 15 15 14
18 18 17 17 17 17 17 17 17 17 17 16 16 16 16 16 16 16 16 16 16 16 15 15 15 15 15 15 15 15 15 15 15 15 14 14 14 14 14 14 14 14 14
18 17 17 17 17 17 17 17 16 16 16 16 16 16 16 16 16 16 15 15 15 15 15 15 15 15 15 14 14 14 14 14 14 14 14 14 14 14 13 13 13 13 13
17 17 17 17 16 16 16 16 16 16 16 16 16 16 15 15 15 15 15 15 15 15 14 14 14 14 14 14 14 14 14 14 13 13 13 13 13 13 13 13 13 13 12
17 16 16 16 16 16 16 16 16 16 16 15 15 15 15 15 15 15 15 14 14 14 14 14 13 13 13 13 13 13 13 13 13 13 12 12 12 12 12 12 12 12 11
16 16 16 16 16 16 15 16 15 15 15 15 15 15 14 14 14 14 14 14 14 13 13 13 13 13 13 13 12 12 12 12 12 12 12 11 11 12 11 11 11 11 11
16 16 16 16 15 15 15 15 15 15 15 14 14 14 14 14 14 14 14 13 13 13 12 12 12 12 12 12 12 12 11 11 11 11 11 11 11 11 11 11 11 11 11
16 16 16 15 15 15 15 15 15 14 14 14 14 14 14 13 13 13 13 13 12 12 12 12 12 12 11 11 11 11 11 11 10 10 10 10 10 10 10 10 10 10 10
16 15 15 15 15 15 15 14 14 14 14 13 13 13 13 13 12 13 12 12 12 11 11 11 11 11 11 11 11 10 10 10 10 10 10 10 9 9 9 9 9 9 9
15 15 15 15 14 14 14 14 14 13 13 13 12 12 12 12 12 12 12 12 11 11 10 10 10 10 10 10 10 10 10 10 10 10 10 9 9 9 8 8 8 8 8
15 14 14 14 14 14 13 13 13 13 12 12 12 11 11 11 11 11 11 11 11 10 10 10 10 10 9 9 9 9 9 9 9 9 9 9 8 8 8 8 8 8 8
14 14 13 13 13 13 13 12 12 12 12 12 12 11 11 11 10 10 10 10 10 10 9 9 9 9 9 9 9 9 8 8 8 8 8 8 8 8 8 8 8 8 8
13 13 13 13 12 12 12 12 12 12 12 11 11 11 11 10 10 10 10 10 9 9 9 9 9 9 9 8 8 8 8 8 8 8 8 8 8 8 7 7 7 8 8
13 13 12 12 12 12 12 12 11 11 11 11 11 10 10 10 10 10 9 9 9 9 9 9 9 9 8 8 8 8 7 7 7 7 7 7 7 7 7 7 7 7 7
13 12 12 12 11 11 11 11 11 10 10 10 10 10 10 9 9 9 9 9 9 8 9 8 8 8 8 8 8 7 7 6 6 6 7 7 7 7 7 7 7 7 7
12 12 12 11 11 11 11 11 11 10 10 9 9 9 9 9 9 9 8 8 8 8 8 8 8 7 7 7 7 7 6 6 6 6 6 6 6 6 6 6 6 6 6
12 12 11 11 11 11 11 11 10 10 10 9 9 8 8 8 8 8 8 8 8 8 8 7 7 7 6 6 6 6 6 6 5 6 6 5 6 6 6 6 6 5 6
11 11 11 11 11 11 11 11 10 10 10 9 9 8 8 8 8 8 7 7 7 7 7 7 6 6 6 6 6 6 6 5 5 5 5 5 5 5 5 5 5 5 6
11 11 11 11 11 11 10 10 10 10 10 9 8 8 8 8 8 7 7 7 7 6 6 6 6 6 5 5 5 5 5 5 5 5 5 5 5 5 5 5 5 5 5
11 11 11 11 10 10 10 10 10 9 9 8 8 8 7 8 8 7 7 6 6 6 5 5 6 5 5 5 5 5 5 5 4 4 4 4 4 4 5 5 4 5 5
10 10 10 10 10 9 9 9 9 9 9 8 8 8 7 7 7 6 6 6 5 5 5 5 5 5 4 4 4 4 4 4 4 4 4 4 4 4 4 4 4 4 4
10 10 10 10 9 9 9 9 9 9 8 8 8 7 7 6 6 6 6 5 5 5 5 5 4 4 4 4 4 4 4 4 4 3 3 3 4 4 4 4 4 4 4
10 10 10 10 9 9 9 8 8 8 8 7 7 7 7 6 6 6 5 5 5 5 4 4 4 4 4 3 3 3 4 4 4 3 3 3 3 3 3 3 4 4 4
10 10 9 9 9 9 8 8 8 8 7 7 7 7 6 6 6 6 5 5 5 4 4 4 4 4 3 3 3 3 3 3 3 3 3 3 3 3 3 3 3 4 3
Wind_Speed
5 5 4 4 4 3 3 3 3 3 3 4 5 5 5 6 6 6 7 7 7 8 8 8 8 7 6 5 5 5 6 6 7 6 4 3 2 4 3 3 4 4 3
5 4 4 3 3 2 2 2 1 1 2 2 2 3 4 4 4 5 6 5 6 6 6 6 6 5 6 5 5 5 5 5 6 6 4 3 3 3 3 4 3 3 2
4 4 4 3 3 2 1 1 1 0 0 0 0 1 2 2 2 2 2 3 3 3 4 4 4 4 4 4 4 4 4 4 4 5 4 3 2 2 2 2 2 2 2
4 4 4 3 3 2 2 2 1 1 2 2 2 2 2 2 1 0 0 1 1 1 1 1 1 2 3 3 3 3 3 3 3 4 4 3 2 2 2 2 2 1 2
4 4 4 4 3 3 3 3 3 3 4 4 4 4 3 3 2 2 1 1 2 2 2 2 2 3 4 3 1 1 1 2 2 2 2 2 2 2 2 3 2 1 1
5 5 4 4 4 4 4 4 5 5 5 5 5 5 5 5 8 7 4 4 4 4 4 4 4 5 6 6 7 7 5 2 2 1 1 1 2 3 3 3 3 2 2
6 5 5 5 5 5 5 5 6 6 6 6 6 6 7 8 9 8 7 6 6 6 6 5 4 5 5 5 6 7 7 7 5 3 3 3 3 3 3 3 3 3 3
6 5 5 6 6 6 6 6 6 6 6 7 7 7 7 9 10 9 8 8 9 9 8 7 6 5 5 4 5 6 7 7 6 5 5 5 5 5 3 2 1 1 1
7 6 5 6 7 7 7 7 6 7 7 7 7 8 8 8 10 8 6 8 9 10 10 10 8 8 9 6 6 7 7 7 10 11 10 9 10 10 8 4 4 3 3
7 6 6 7 7 8 7 7 7 7 8 8 8 9 9 9 10 9 6 7 8 8 9 10 13 11 12 10 7 7 7 6 6 7 7 7 8 9 9 7 5 4 3
7 7 7 7 8 8 8 7 7 8 9 9 10 10 10 9 10 11 9 6 7 8 8 8 9 12 12 11 9 8 6 4 5 5 5 6 6 6 7 8 7 6 5
8 8 8 8 7 7 8 8 8 9 9 9 9 9 8 8 9 11 12 11 8 9 8 8 8 10 12 11 9 7 4 2 4 4 5 6 6 6 6 7 7 7 6
9 9 9 9 8 8 8 8 8 7 7 7 7 7 7 7 9 12 13 12 11 9 9 10 7 5 7 9 9 6 4 5 5 5 6 6 5 5 4 3 4 3 3
10 9 9 9 9 8 6 6 6 6 6 6 6 7 7 7 6 6 7 9 10 9 8 8 7 6 6 6 5 6 7 7 6 6 5 5 4 4 4 5 4 4 3
10 9 9 9 10 9 10 9 8 8 6 5 6 6 6 7 7 8 5 6 5 5 4 4 5 6 7 7 7 7 7 6 6 6 5 4 4 4 5 5 4 4 4
9 9 8 8 8 9 10 11 18 14 16 16 14 11 10 11 10 11 12 10 7 4 3 6 6 6 6 7 6 6 6 6 6 5 5 5 5 4 4 4 4 5 5
10 9 8 8 8 8 9 10 10 11 16 17 16 15 13 11 10 9 8 6 3 3 4 7 6 6 6 6 6 6 6 6 5 5 5 5 5 4 4 5 5 5 5
10 9 8 7 8 8 8 9 9 10 10 9 11 12 12 11 8 5 2 3 4 4 6 6 6 6 6 6 6 6 5 5 5 5 5 5 5 5 5 5 5 6 6
9 8 7 7 7 8 8 8 9 10 9 9 9 9 8 8 7 2 1 3 6 6 6 6 6 6 6 6 5 5 5 5 5 5 5 5 5 5 5 5 5 4 5
7 8 7 7 8 8 8 9 9 9 9 8 7 7 6 5 5 5 4 5 5 6 6 6 6 6 5 5 5 5 5 5 4 4 5 5 5 5 5 6 6 6 5
9 9 7 7 8 8 8 8 8 7 7 7 7 6 3 4 5 6 5 6 6 6 5 5 5 4 5 4 4 5 5 5 5 5 5 5 5 5 5 5 6 6 6
9 8 7 7 8 7 8 8 8 8 8 8 7 7 2 3 5 5 5 5 5 5 5 4 4 4 5 5 4 4 5 5 5 6 5 5 4 5 5 5 6 6 6
9 9 9 8 8 8 7 7 7 7 7 7 6 6 5 5 5 5 5 5 5 4 4 4 3 4 5 5 5 5 5 6 6 6 6 5 5 5 5 5 6 6 6
9 9 9 9 8 7 7 7 7 7 7 6 6 6 5 5 5 5 4 4 3 3 3 3 4 5 6 5 5 6 8 8 8 7 7 6 6 5 5 5 6 7 6
8 8 8 8 7 7 7 6 6 6 6 5 5 5 5 5 5 4 3 3 2 3 3 3 3 4 5 6 7 8 9 10 9 9 8 6 6 6 6 6 6 7 7
8 8 7 7 6 6 6 6 5 5 5 5 4 4 4 3 3 3 2 2 2 2 2 2 3 3 3 4 6 7 8 8 9 11 9 7 6 6 7 7 7 7 6
Wind_Direction
184 187 191 198 202 209 231 245 253 255 247 241 232 235 236 236 234 233 238 237 237 241 241 239 238 245 245 243 241 240 242 240 250 265 265 275 274 286 297 278 265 254 226
169 169 170 176 186 191 209 229 235 249 266 253 236 229 233 239 240 239 237 236 239 245 245 244 247 243 239 243 239 239 243 247 247 258 268 264 256 266 280 283 286 275 263
152 154 153 159 162 165 165 165 197 167 25 340 344 270 268 258 243 240 232 231 235 245 248 246 251 253 247 239 238 242 247 248 248 250 260 266 265 274 274 279 295 315 285
140 146 146 144 143 137 127 117 104 93 82 66 65 42 33 40 62 90 156 206 217 224 235 245 283 269 259 246 237 242 246 253 251 254 262 268 276 300 289 281 296 311 317
136 137 133 134 129 117 112 106 97 88 83 73 70 64 63 65 56 54 78 97 94 89 76 65 51 49 38 17 343 330 291 272 266 268 280 299 329 340 330 329 327 343 35
128 126 124 125 121 114 110 110 105 96 84 76 73 69 59 53 46 40 44 71 73 74 68 68 71 66 72 72 59 52 35 6 333 315 330 358 2 350 346 344 350 353 11
119 118 123 124 115 109 110 111 105 98 91 82 75 72 66 54 48 48 51 69 68 63 60 59 59 58 62 82 86 84 63 47 33 23 39 21 17 6 356 4 21 10 7
116 113 116 118 113 111 107 102 100 98 91 86 79 75 74 59 50 55 64 75 72 66 61 58 60 58 52 61 77 73 64 50 45 51 52 38 35 15 353 354 15 50 78
113 112 112 116 117 116 112 105 98 94 89 86 82 78 76 63 43 42 58 85 79 70 61 52 53 62 38 40 79 78 74 72 71 73 72 70 63 50 30 29 28 19 21
114 112 112 116 117 116 112 106 99 96 93 90 81 74 73 67 47 41 46 89 87 82 73 63 54 53 42 38 69 75 75 67 68 75 76 73 65 61 54 40 25 18 9
114 113 110 108 110 111 109 107 107 104 97 91 86 79 72 67 61 46 40 78 87 86 79 70 58 51 52 46 53 65 60 53 72 70 67 61 58 50 44 41 29 20 18
114 111 108 107 108 111 111 109 109 111 106 100 94 88 81 72 64 59 54 55 63 85 80 78 73 65 65 58 59 50 19 359 67 65 59 52 46 44 42 38 38 37 34
113 109 105 100 96 104 111 114 115 115 111 108 104 98 91 88 85 80 73 67 62 81 84 81 81 88 97 79 65 34 25 49 53 57 56 51 48 44 33 41 54 57 57
115 112 108 104 99 92 93 96 101 103 107 109 106 104 102 95 87 91 98 99 107 101 100 111 115 83 82 85 80 57 50 44 39 48 49 47 42 40 32 23 16 15 26
119 116 113 107 101 88 74 55 65 60 56 80 97 101 100 95 65 43 62 78 76 77 90 92 74 67 61 59 58 53 47 46 46 44 41 38 33 31 30 24 11 7 15
127 125 120 117 114 111 104 85 56 60 58 56 54 73 78 81 84 73 68 63 52 4 48 78 68 60 53 51 51 53 51 45 39 37 36 30 24 20 18 14 6 6 8
128 128 125 125 125 124 122 117 108 82 67 62 63 70 84 91 87 86 87 83 43 333 77 75 68 59 54 50 47 46 45 42 28 30 29 22 14 10 13 14 11 5 3
126 122 124 126 128 127 126 124 123 122 113 96 79 81 91 94 91 90 119 150 94 74 71 70 66 60 53 46 43 40 38 35 29 25 23 16 9 8 8 7 14 3 352
126 125 122 125 128 125 124 121 119 117 116 116 117 109 114 123 122 99 306 72 75 72 69 65 59 55 50 47 41 35 32 32 24 14 20 11 6 2 3 358 3 1 335
111 112 126 130 127 127 127 125 123 123 122 119 117 118 134 141 113 101 83 72 74 73 70 67 62 55 49 43 38 31 31 31 22 18 17 5 3 1 1 356 354 349 348
125 125 135 130 123 124 125 123 123 122 119 114 105 87 29 108 96 89 82 77 71 70 65 63 62 56 48 36 31 30 24 23 20 13 7 1 359 359 355 353 349 347 346
127 130 129 122 120 119 121 123 123 119 117 114 114 118 106 101 96 93 87 80 73 68 61 51 51 47 35 27 22 18 19 20 14 5 358 355 353 350 351 351 349 347 344
128 128 124 120 119 123 127 124 123 121 120 119 122 120 117 102 98 93 88 81 74 67 60 49 42 44 39 29 21 17 15 13 7 357 344 342 345 345 345 345 340 339 343
127 127 125 124 127 132 127 125 124 125 125 124 120 117 115 110 103 97 91 86 77 68 57 51 49 48 36 25 23 31 31 12 350 345 342 335 335 339 341 339 337 342 337
127 126 127 129 130 129 127 127 126 128 129 127 126 126 121 118 116 113 106 100 94 77 61 50 54 53 41 33 32 35 28 13 358 343 328 326 333 335 334 334 338 336 336
127 126 123 121 120 123 127 129 129 132 135 134 131 127 125 129 128 123 118 109 105 94 74 65 59 51 36 40 48 39 23 8 354 339 325 323 328 335 334 325 330 329 335
Height
1527 1528 1529 1530 1530 1530 1531 1531 1531 1531 1531 1531 1532 1532 1533 1534 1535 1536 1536 1537 1538 1539 1539 1540 1540 1541 1542 1543 1543 1544 1545 1545 1545 1546 1546 1546 1546 1546 1546 1545 1545 1545 1544
1526 1527 1527 1528 1529 1529 1530 1530 1530 1530 1530 1530 1530 1530 1531 1531 1532 1533 1533 1533 1534 1535 1536 1536 1536 1537 1537 1538 1539 1540 1541 1541 1542 1542 1542 1543 1542 1542 1542 1541 1541 1541 1540
1525 1526 1526 1527 1528 1528 1528 1529 1529 1529 1529 1529 1528 1529 1529 1529 1529 1530 1530 1530 1530 1531 1532 1533 1533 1534 1534 1535 1536 1537 1537 1538 1538 1538 1538 1539 1539 1538 1538 1538 1537 1536 1536
1524 1525 1525 1526 1527 1527 1528 1528 1529 1529 1528 1528 1528 1528 1528 1528 1528 1528 1528 1528 1528 1529 1529 1530 1530 1531 1532 1532 1533 1534 1534 1535 1535 1535 1535 1535 1535 1535 1534 1534 1533 1533 1532
1523 1524 1525 1525 1526 1527 1527 1528 1528 1528 1528 1528 1527 1527 1527 1527 1527 1527 1527 1527 1527 1527 1527 1528 1528 1529 1530 1530 1531 1531 1532 1532 1532 1532 1533 1533 1532 1531 1531 1531 1530 1530 1529
1523 1524 1524 1525 1525 1526 1527 1527 1527 1528 1528 1528 1528 1527 1527 1527 1527 1527 1527 1527 1526 1526 1527 1527 1528 1528 1528 1528 1529 1529 1530 1530 1530 1531 1531 1530 1530 1529 1529 1529 1528 1527 1527
1523 1524 1524 1525 1525 1526 1526 1527 1528 1528 1528 1528 1528 1528 1528 1528 1528 1528 1527 1527 1527 1527 1527 1527 1528 1528 1528 1528 1528 1528 1528 1528 1529 1529 1529 1528 1528 1527 1527 1527 1526 1526 1525
1523 1524 1524 1525 1526 1526 1527 1527 1528 1529 1529 1529 1529 1529 1529 1529 1529 1529 1529 1528 1528 1528 1528 1528 1528 1527 1527 1527 1528 1528 1527 1527 1527 1527 1527 1527 1527 1526 1526 1526 1525 1525 1524
1522 1524 1525 1525 1526 1527 1528 1528 1529 1529 1530 1530 1530 1530 1530 1531 1531 1531 1531 1530 1530 1530 1530 1529 1529 1528 1528 1528 1528 1528 1528 1528 1528 1527 1526 1526 1526 1525 1525 1525 1524 1524 1524
1522 1524 1525 1526 1527 1528 1528 1529 1530 1530 1531 1531 1531 1532 1532 1532 1533 1533 1533 1533 1532 1532 1531 1531 1530 1530 1530 1529 1529 1529 1529 1529 1529 1528 1527 1527 1527 1526 1525 1525 1525 1525 1525
1523 1524 1525 1526 1527 1528 1529 1530 1531 1532 1532 1532 1533 1533 1534 1534 1535 1535 1535 1534 1534 1534 1534 1534 1533 1532 1531 1531 1531 1531 1530 1531 1531 1531 1530 1529 1529 1528 1527 1526 1526 1525 1525
1523 1524 1525 1527 1528 1529 1530 1531 1532 1533 1534 1534 1535 1535 1536 1536 1537 1537 1537 1536 1536 1536 1536 1536 1535 1535 1534 1533 1533 1533 1533 1533 1533 1533 1532 1531 1531 1530 1529 1528 1526 1525 1525
1523 1524 1526 1527 1529 1530 1531 1533 1534 1535 1536 1537 1537 1538 1538 1539 1539 1539 1539 1539 1539 1538 1538 1538 1538 1537 1537 1536 1535 1535 1535 1536 1535 1534 1534 1533 1532 1531 1530 1529 1528 1527 1526
1523 1525 1526 1528 1530 1531 1533 1534 1536 1537 1538 1539 1539 1540 1541 1541 1541 1542 1542 1542 1541 1541 1541 1540 1540 1540 1539 1539 1538 1538 1537 1536 1536 1536 1535 1534 1534 1533 1532 1531 1530 1529 1528
1524 1526 1527 1529 1531 1532 1533 1535 1536 1537 1538 1540 1541 1542 1542 1542 1543 1543 1544 1544 1544 1543 1543 1544 1544 1544 1543 1542 1541 1540 1539 1538 1538 1537 1536 1536 1535 1534 1533 1532 1530 1530 1529
1524 1526 1528 1530 1532 1533 1535 1536 1537 1539 1540 1540 1541 1542 1543 1544 1544 1544 1545 1545 1545 1545 1546 1546 1546 1545 1544 1544 1543 1542 1541 1540 1539 1538 1538 1537 1536 1535 1534 1533 1532 1531 1529
1525 1527 1529 1531 1533 1535 1537 1538 1539 1541 1541 1542 1543 1544 1545 1545 1546 1546 1546 1546 1546 1547 1548 1548 1547 1547 1546 1545 1545 1544 1543 1542 1540 1540 1539 1538 1537 1536 1535 1534 1532 1531 1530
1526 1528 1530 1532 1535 1537 1538 1540 1541 1542 1543 1544 1546 1546 1547 1547 1548 1548 1548 1549 1549 1549 1549 1549 1549 1548 1548 1547 1546 1545 1545 1543 1542 1541 1540 1539 1538 1537 1536 1534 1533 1531 1530
1527 1529 1531 1533 1536 1538 1540 1541 1543 1544 1545 1546 1547 1548 1549 1549 1549 1550 1550 1551 1551 1551 1551 1551 1550 1550 1549 1548 1547 1547 1546 1545 1543 1543 1542 1540 1539 1538 1536 1535 1533 1531 1530
1528 1530 1532 1535 1537 1539 1540 1542 1544 1545 1547 1548 1550 1551 1551 1552 1553 1553 1553 1553 1553 1553 1552 1552 1551 1551 1550 1550 1549 1548 1547 1546 1545 1544 1542 1541 1540 1538 1537 1535 1534 1532 1530
1530 1531 1533 1536 1538 1540 1542 1543 1545 1546 1548 1549 1551 1551 1552 1554 1554 1554 1554 1554 1554 1554 1553 1553 1553 1552 1552 1551 1550 1549 1548 1547 1546 1544 1543 1541 1540 1538 1537 1535 1534 1532 1530
1531 1533 1535 1537 1539 1541 1543 1545 1546 1548 1549 1550 1551 1552 1553 1554 1555 1556 1556 1555 1555 1555 1554 1554 1554 1554 1553 1552 1551 1550 1549 1548 1546 1544 1543 1542 1540 1539 1537 1535 1534 1532 1530
1533 1535 1537 1539 1541 1542 1544 1546 1548 1549 1550 1552 1553 1554 1554 1555 1556 1556 1556 1556 1556 1556 1555 1555 1555 1554 1553 1552 1551 1550 1548 1547 1546 1544 1543 1542 1540 1539 1537 1535 1533 1531 1529
1535 1537 1539 1541 1543 1545 1546 1548 1549 1550 1551 1553 1553 1554 1555 1556 1557 1557 1557 1557 1557 1557 1556 1556 1555 1554 1552 1551 1551 1549 1547 1545 1544 1543 1542 1541 1540 1538 1537 1535 1533 1531 1529
1537 1539 1541 1543 1544 1546 1548 1549 1550 1552 1553 1554 1554 1555 1556 1557 1557 1557 1557 1557 1557 1557 1556 1555 1555 1554 1552 1551 1549 1548 1546 1545 1543 1542 1541 1540 1539 1537 1536 1534 1533 1530 1528
1539 1540 1542 1544 1546 1547 1548 1550 1551 1552 1553 1554 1555 1556 1556 1557 1557 1558 1557 1557 1557 1557 1556 1555 1554 1553 1551 1550 1548 1547 1546 1544 1543 1541 1540 1539 1538 1537 1535 1534 1532 1530 1528